This is the latest recevied weather packets stored in our database for station/object N7WSS. If no packets are shown the sender has not sent any weather packets the latest 10 day(s).
| Time | Temp. | Humidity | Pressure | Rain* | Wind** | Luminosity | Snow |
|---|---|---|---|---|---|---|---|
| 1787660625 | 23.89° C | 54% | 1014.9 hPa | 0 mm | - | - | - |
| 1787660320 | 23.89° C | 54% | 1014.7 hPa | 0 mm | - | - | - |
| 1787660015 | 23.89° C | 54% | 1014.4 hPa | 0 mm | - | - | - |
| 1787659712 | 23.89° C | 54% | 1014.5 hPa | 0 mm | - | - | - |
| 1787659407 | 23.89° C | 54% | 1014.4 hPa | 0 mm | - | - | - |
| 1787659107 | 23.89° C | 53% | 1014.2 hPa | 0 mm | - | - | - |
| 1787658802 | 23.33° C | 54% | 1014.4 hPa | 0 mm | - | - | - |
| 1787658501 | 23.33° C | 54% | 1014.1 hPa | 0 mm | - | - | - |
| 1787658198 | 23.33° C | 54% | 1014 hPa | 0 mm | - | - | - |
| 1787657893 | 23.89° C | 54% | 1014.1 hPa | 0 mm | - | - | - |
| 1787657593 | 23.89° C | 53% | 1014 hPa | 0 mm | - | - | - |
| 1787657288 | 23.89° C | 52% | 1014.2 hPa | 0 mm | - | - | - |
| 1787656984 | 23.89° C | 52% | 1013.9 hPa | 0 mm | - | - | - |
| 1787656680 | 23.89° C | 52% | 1014 hPa | 0 mm | - | - | - |
| 1787656376 | 24.44° C | 52% | 1014.1 hPa | 0 mm | - | - | - |
| 1787656076 | 24.44° C | 52% | 1013.9 hPa | 0 mm | - | - | - |
| 1787655773 | 24.44° C | 51% | 1013.9 hPa | 0 mm | - | - | - |
| 1787655471 | 24.44° C | 52% | 1014.1 hPa | 0 mm | - | - | - |
| 1787655170 | 24.44° C | 52% | 1014 hPa | 0 mm | - | - | - |
| 1787654867 | 24.44° C | 52% | 1013.8 hPa | 0 mm | - | - | - |
| 1787654563 | 24.44° C | 52% | 1013.9 hPa | 0 mm | - | - | - |
| 1787654258 | 24.44° C | 52% | 1013.8 hPa | 0 mm | - | - | - |
| 1787653952 | 24.44° C | 51% | 1013.8 hPa | 0 mm | - | - | - |
| 1787653647 | 25° C | 51% | 1013.9 hPa | 0 mm | - | - | - |
| 1787653343 | 24.44° C | 51% | 1013.9 hPa | 0 mm | - | - | - |
* Rain latest hour (hover to see other rain measurements)
** Current wind speed in m/s (hover to see current wind gust speed)